{"data":{"norad_id":62981,"intl_designator":"2025-031A","name":"STARLINK-11543 [DTC]","alt_names":[],"object_type":"PAYLOAD","status":"ACTIVE","operator":null,"country":"US","launch_date":"2025-02-11","launch_site_code":"AFETR","launch_vehicle":null,"mission":null,"orbit_class":"UNKNOWN","rcs_meters":null,"size_class":null,"mass_kg":null,"dimensions":null,"purposes":["comms"],"wikipedia_slug":null,"has_3d_model":false,"image_url":null,"decayed_at":null,"tle_current":{"epoch":"2026-05-25T00:52:36.755328Z","epoch_age_seconds":72232,"freshness":"FRESH","line1":"1 62981U 25031A   26145.03653652  .00169961  00000+0  12983-2 0  9991","line2":"2 62981  42.9992 260.9221 0001469 273.6417  86.4283 15.70891435 74752","mean_motion":15.70891435,"eccentricity":0.0001469,"inclination_deg":42.9992,"raan_deg":260.9221,"arg_perigee_deg":273.6417,"mean_anomaly_deg":86.4283,"bstar":0.0012983,"rev_number":7475,"period_min":91.667696946861,"perigee_km":355.35875886907,"apogee_km":357.33735057815,"semimajor_km":6734.4850547236,"source":"CELESTRAK","updated_at":"2026-05-25T13:38:19.829598Z"}}}